Total_Precipitation_Accumulation
0.19 0.16 0.13 0.13 0.13 0.15 0.17 0.19 0.21 0.18 0.15 0.15 0.16 0.18 0.19 0.22 0.25 0.31 0.34 0.38 0.48 0.60 0.69 0.73 0.75 0.77 0.81 0.79 0.85 0.86 0.81 0.89 0.89 0.75 0.81 0.87 0.77 0.59 0.48 0.46 0.47 0.50 0.47
0.17 0.16 0.13 0.11 0.10 0.12 0.15 0.17 0.18 0.18 0.16 0.14 0.14 0.15 0.15 0.16 0.22 0.32 0.42 0.44 0.47 0.55 0.77 0.99 1.01 1.01 0.93 0.85 0.93 0.91 0.87 1.01 0.97 0.86 0.94 0.97 0.91 0.73 0.58 0.49 0.42 0.42 0.45
0.15 0.14 0.13 0.11 0.09 0.10 0.13 0.15 0.14 0.15 0.17 0.16 0.16 0.16 0.14 0.13 0.15 0.23 0.35 0.40 0.49 0.63 0.79 0.92 1.04 1.16 1.06 0.96 0.94 0.93 0.96 1.05 1.03 0.93 0.97 1.11 1.14 0.95 0.70 0.49 0.38 0.38 0.40
0.16 0.16 0.15 0.15 0.15 0.14 0.13 0.14 0.14 0.15 0.17 0.19 0.19 0.18 0.17 0.15 0.14 0.19 0.27 0.35 0.48 0.66 0.72 0.67 0.78 1.04 1.14 1.07 0.95 0.90 0.94 0.99 1.00 1.01 1.06 1.20 1.25 1.19 0.93 0.65 0.48 0.38 0.34
0.24 0.26 0.25 0.25 0.27 0.27 0.24 0.23 0.24 0.25 0.24 0.26 0.26 0.24 0.23 0.19 0.15 0.21 0.30 0.26 0.31 0.39 0.43 0.43 0.49 0.66 0.93 1.10 1.04 0.94 0.94 0.92 0.92 1.01 1.09 1.18 1.21 1.24 1.08 0.82 0.62 0.51 0.41
0.42 0.44 0.45 0.52 0.53 0.47 0.43 0.43 0.42 0.42 0.43 0.45 0.43 0.40 0.37 0.27 0.22 0.21 0.23 0.25 0.27 0.30 0.32 0.35 0.35 0.35 0.46 0.68 0.90 1.02 1.07 1.00 0.92 0.96 1.09 1.14 1.14 1.14 1.12 0.98 0.76 0.59 0.48
0.59 0.66 0.71 0.75 0.81 0.80 0.75 0.68 0.63 0.65 0.67 0.67 0.63 0.59 0.55 0.52 0.40 0.29 0.24 0.25 0.26 0.27 0.31 0.34 0.28 0.24 0.33 0.42 0.56 0.70 0.83 0.89 0.90 0.95 1.01 1.10 1.17 1.26 1.25 1.09 0.90 0.76 0.61
0.79 0.90 1.00 0.99 0.97 0.95 0.93 0.83 0.82 0.88 0.89 0.84 0.78 0.73 0.73 0.68 0.53 0.38 0.31 0.25 0.27 0.31 0.35 0.39 0.38 0.35 0.37 0.44 0.51 0.52 0.56 0.61 0.65 0.72 0.82 0.98 1.17 1.34 1.45 1.35 1.20 0.97 0.82
0.78 0.81 0.84 0.91 0.99 1.05 1.02 1.00 1.03 1.02 0.92 0.84 0.79 0.80 0.81 0.81 0.67 0.49 0.41 0.39 0.42 0.42 0.43 0.44 0.44 0.41 0.38 0.34 0.41 0.44 0.45 0.47 0.52 0.59 0.66 0.83 1.10 1.32 1.40 1.43 1.29 1.08 0.88
0.78 0.77 0.74 0.81 0.95 1.07 1.11 1.10 1.07 1.05 1.02 0.98 0.90 0.90 0.92 0.95 0.84 0.58 0.49 0.49 0.52 0.52 0.57 0.57 0.47 0.43 0.38 0.30 0.35 0.42 0.40 0.42 0.50 0.55 0.60 0.64 0.77 1.05 1.29 1.19 1.11 1.04 0.88
0.62 0.69 0.75 0.83 0.93 0.99 1.08 1.12 1.13 1.15 1.18 1.19 1.12 1.06 1.06 1.05 0.99 0.72 0.59 0.56 0.62 0.71 0.71 0.70 0.67 0.52 0.36 0.31 0.32 0.39 0.36 0.43 0.60 0.66 0.68 0.72 0.80 0.91 1.08 1.11 1.03 0.94 0.87
0.43 0.47 0.51 0.62 0.74 0.81 0.94 0.98 1.04 1.05 1.05 1.06 1.06 1.00 0.98 0.99 0.92 0.79 0.60 0.53 0.61 0.76 0.83 0.86 0.86 0.68 0.48 0.39 0.34 0.32 0.30 0.32 0.47 0.59 0.67 0.69 0.73 0.81 0.93 1.07 1.09 1.05 0.92
0.39 0.40 0.43 0.50 0.67 0.82 0.87 0.85 0.88 0.90 0.89 0.88 0.92 0.93 0.91 0.91 0.85 0.64 0.52 0.43 0.47 0.63 0.78 0.88 0.82 0.68 0.57 0.46 0.39 0.34 0.32 0.31 0.41 0.51 0.58 0.61 0.62 0.69 0.93 1.20 1.34 1.36 1.25
0.43 0.44 0.47 0.53 0.67 0.91 1.05 0.98 0.92 0.90 0.87 0.86 0.83 0.84 0.90 0.96 0.92 0.74 0.56 0.44 0.47 0.60 0.69 0.72 0.72 0.72 0.70 0.65 0.53 0.44 0.37 0.38 0.43 0.50 0.60 0.70 0.80 0.89 0.99 1.15 1.33 1.37 1.35
0.40 0.39 0.39 0.46 0.61 0.83 1.00 1.00 0.88 0.85 0.83 0.82 0.78 0.77 0.75 0.73 0.71 0.62 0.53 0.53 0.61 0.69 0.71 0.78 0.80 0.86 0.90 0.89 0.84 0.75 0.68 0.65 0.60 0.60 0.73 0.86 0.91 0.96 1.00 1.10 1.23 1.26 1.16
0.48 0.45 0.45 0.48 0.56 0.77 0.98 1.05 0.86 0.70 0.68 0.66 0.60 0.58 0.54 0.47 0.43 0.44 0.42 0.42 0.49 0.54 0.56 0.72 0.85 0.94 1.02 1.04 1.05 0.98 0.91 0.83 0.77 0.79 0.85 0.93 0.97 0.98 1.01 1.12 1.22 1.22 1.10
0.47 0.44 0.42 0.43 0.47 0.59 0.84 1.09 1.13 0.87 0.65 0.56 0.44 0.34 0.32 0.27 0.30 0.36 0.42 0.39 0.39 0.40 0.42 0.57 0.73 0.86 0.99 1.06 1.08 1.02 0.97 0.91 0.89 0.91 0.97 1.00 1.04 1.05 1.06 1.08 1.17 1.20 1.11
0.41 0.38 0.36 0.36 0.38 0.47 0.69 0.97 1.17 1.15 0.98 0.73 0.45 0.28 0.24 0.22 0.25 0.36 0.43 0.41 0.39 0.36 0.37 0.48 0.62 0.76 0.91 1.04 1.11 1.07 1.05 1.03 0.97 0.94 1.01 1.04 1.07 1.10 1.08 1.04 1.09 1.16 1.14
0.37 0.33 0.30 0.31 0.32 0.37 0.56 0.83 1.05 1.13 1.08 0.96 0.68 0.37 0.26 0.25 0.30 0.41 0.44 0.46 0.48 0.44 0.43 0.48 0.54 0.66 0.83 1.00 1.10 1.16 1.16 1.10 1.00 0.98 1.02 1.06 1.06 1.10 1.08 1.02 1.06 1.17 1.18
0.31 0.25 0.20 0.22 0.25 0.30 0.42 0.66 0.92 1.07 1.03 0.98 0.83 0.49 0.28 0.27 0.37 0.52 0.58 0.65 0.64 0.56 0.52 0.54 0.57 0.66 0.82 1.00 1.10 1.14 1.19 1.13 1.07 1.04 1.03 1.07 1.09 1.10 1.08 1.04 1.04 1.10 1.07
0.27 0.22 0.15 0.15 0.24 0.30 0.37 0.55 0.81 0.99 0.96 0.88 0.77 0.46 0.28 0.32 0.46 0.58 0.71 0.75 0.75 0.69 0.66 0.63 0.62 0.69 0.80 0.94 1.03 1.07 1.13 1.12 1.07 1.05 1.04 1.06 1.10 1.10 1.15 1.14 1.08 1.08 1.09
0.24 0.24 0.21 0.22 0.28 0.32 0.36 0.54 0.76 0.91 0.88 0.83 0.74 0.51 0.36 0.43 0.54 0.64 0.71 0.70 0.68 0.62 0.60 0.65 0.68 0.73 0.79 0.86 0.94 1.04 1.09 1.09 1.08 1.07 1.07 1.09 1.13 1.13 1.16 1.17 1.12 1.09 1.09
0.20 0.22 0.22 0.24 0.29 0.28 0.39 0.57 0.72 0.79 0.78 0.74 0.64 0.53 0.49 0.54 0.56 0.61 0.65 0.65 0.64 0.62 0.61 0.66 0.73 0.77 0.82 0.85 0.89 0.97 1.01 1.00 1.00 1.01 1.07 1.10 1.12 1.11 1.11 1.11 1.07 1.07 1.03
0.20 0.24 0.26 0.29 0.31 0.38 0.48 0.61 0.67 0.66 0.65 0.63 0.60 0.59 0.61 0.63 0.59 0.57 0.62 0.65 0.68 0.70 0.70 0.68 0.71 0.71 0.73 0.76 0.79 0.81 0.85 0.83 0.80 0.82 0.88 0.95 1.00 1.01 1.02 1.05 1.04 1.03 1.01
0.18 0.22 0.28 0.34 0.38 0.44 0.53 0.63 0.64 0.62 0.57 0.54 0.55 0.58 0.59 0.56 0.59 0.62 0.67 0.70 0.71 0.69 0.64 0.64 0.66 0.65 0.62 0.61 0.62 0.64 0.67 0.61 0.55 0.57 0.66 0.79 0.87 0.89 0.90 0.94 0.98 1.00 1.00
0.17 0.19 0.25 0.31 0.34 0.38 0.48 0.57 0.56 0.52 0.47 0.47 0.51 0.57 0.59 0.59 0.63 0.66 0.68 0.72 0.75 0.72 0.69 0.67 0.62 0.61 0.60 0.59 0.58 0.59 0.54 0.44 0.40 0.42 0.46 0.59 0.73 0.79 0.83 0.89 0.92 0.99 1.00